Time,TemperatureF,DewpointF,PressureIn,WindDirection,WindDirectionDegrees,WindSpeedMPH,WindSpeedGustMPH,Humidity,HourlyPrecipIn,Conditions,Clouds,dailyrainin,SolarRadiationWatts/m^2,SoftwareType,DateUTC
2013-05-13 00:02:00,53.1,32.8,29.97,NNW,332,5.0,9.0,46,0.00,,,0.11,0,Wunderground v.1.15,2013-05-13 04:02:00,
2013-05-13 00:08:00,53.1,32.8,29.97,NNW,328,5.0,9.0,46,0.00,,,0.00,0,Wunderground v.1.15,2013-05-13 04:08:00,
2013-05-13 00:10:00,53.0,32.8,29.97,NNW,328,5.0,9.0,46,0.00,,,0.00,0,Wunderground v.1.15,2013-05-13 04:10:00,
2013-05-13 00:16:00,52.9,32.7,29.97,WNW,286,5.0,9.0,46,0.00,,,0.00,0,Wunderground v.1.15,2013-05-13 04:16:00,
2013-05-13 00:18:00,52.9,32.7,29.98,WNW,288,5.0,9.0,46,0.00,,,0.00,0,Wunderground v.1.15,2013-05-13 04:18:00,
2013-05-13 00:24:00,52.7,32.5,29.98,WNW,293,4.0,6.0,46,0.00,,,0.00,0,Wunderground v.1.15,2013-05-13 04:24:00,
2013-05-13 00:30:00,52.6,32.4,29.98,NW,310,4.0,5.0,46,0.00,,,0.00,0,Wunderground v.1.15,2013-05-13 04:30:00,
2013-05-13 00:36:00,52.4,32.7,29.98,NW,317,4.0,5.0,47,0.00,,,0.00,0,Wunderground v.1.15,2013-05-13 04:36:00,
2013-05-13 00:42:00,52.3,32.6,29.98,NW,316,5.0,5.0,47,0.00,,,0.00,0,Wunderground v.1.15,2013-05-13 04:42:00,
2013-05-13 00:48:00,52.2,32.6,29.98,NW,320,5.0,7.0,47,0.00,,,0.00,0,Wunderground v.1.15,2013-05-13 04:48:00,
2013-05-13 00:54:00,52.1,32.5,29.98,WNW,300,4.0,10.0,47,0.00,,,0.00,0,Wunderground v.1.15,2013-05-13 04:54:00,
2013-05-13 01:00:00,52.0,32.9,29.99,NW,317,4.0,5.0,48,0.00,,,0.00,0,Wunderground v.1.15,2013-05-13 05:00:00,
2013-05-13 01:06:00,52.0,32.9,29.99,NW,311,4.0,5.0,48,0.00,,,0.00,0,Wunderground v.1.15,2013-05-13 05:06:00,
2013-05-13 01:12:00,51.8,32.7,29.99,NW,317,4.0,5.0,48,0.00,,,0.00,0,Wunderground v.1.15,2013-05-13 05:12:00,
2013-05-13 01:18:00,51.7,32.6,29.99,NW,309,4.0,5.0,48,0.00,,,0.00,0,Wunderground v.1.15,2013-05-13 05:18:00,
2013-05-13 01:24:00,51.7,32.6,29.99,NW,304,4.0,7.0,48,0.00,,,0.00,0,Wunderground v.1.15,2013-05-13 05:24:00,
2013-05-13 01:30:00,51.6,32.5,29.99,NW,306,4.0,4.0,48,0.00,,,0.00,0,Wunderground v.1.15,2013-05-13 05:30:00,
2013-05-13 01:36:00,51.5,32.4,29.99,NW,311,3.0,4.0,48,0.00,,,0.00,0,Wunderground v.1.15,2013-05-13 05:36:00,
2013-05-13 01:42:00,51.5,32.4,29.99,NW,306,4.0,4.0,48,0.00,,,0.00,0,Wunderground v.1.15,2013-05-13 05:42:00,
2013-05-13 01:48:00,51.4,32.3,29.99,WNW,294,3.0,4.0,48,0.00,,,0.00,0,Wunderground v.1.15,2013-05-13 05:48:00,
2013-05-13 01:54:00,51.3,32.3,29.99,NW,323,2.0,6.0,48,0.00,,,0.00,0,Wunderground v.1.15,2013-05-13 05:54:00,
2013-05-13 02:00:00,51.2,32.2,29.99,WNW,297,3.0,5.0,48,0.00,,,0.00,0,Wunderground v.1.15,2013-05-13 06:00:00,
2013-05-13 02:06:00,51.1,32.1,29.99,NNW,336,3.0,5.0,48,0.00,,,0.00,0,Wunderground v.1.15,2013-05-13 06:06:00,
2013-05-13 02:12:00,51.0,32.0,29.99,NNW,333,2.0,3.0,48,0.00,,,0.00,0,Wunderground v.1.15,2013-05-13 06:12:00,
2013-05-13 02:18:00,50.8,32.3,29.99,WNW,302,2.0,4.0,49,0.00,,,0.00,0,Wunderground v.1.15,2013-05-13 06:18:00,
2013-05-13 02:24:00,50.7,32.2,29.99,NW,324,2.0,3.0,49,0.00,,,0.00,0,Wunderground v.1.15,2013-05-13 06:24:00,
2013-05-13 02:30:00,50.5,32.5,29.99,NW,324,2.0,2.0,50,0.00,,,0.00,0,Wunderground v.1.15,2013-05-13 06:30:00,
2013-05-13 02:36:00,50.3,32.8,30.00,WNW,283,1.0,2.0,51,0.00,,,0.00,0,Wunderground v.1.15,2013-05-13 06:36:00,
2013-05-13 02:42:00,50.2,32.8,30.00,WNW,283,0.0,1.0,51,0.00,,,0.00,0,Wunderground v.1.15,2013-05-13 06:42:00,
2013-05-13 02:48:00,50.0,32.6,30.00,WNW,283,0.0,1.0,51,0.00,,,0.00,0,Wunderground v.1.15,2013-05-13 06:48:00,
2013-05-13 02:54:00,49.9,33.4,30.00,WNW,283,0.0,0.0,53,0.00,,,0.00,0,Wunderground v.1.15,2013-05-13 06:54:00,
2013-05-13 03:00:00,49.6,34.5,30.01,WNW,283,0.0,0.0,56,0.00,,,0.00,0,Wunderground v.1.15,2013-05-13 07:00:00,
2013-05-13 03:06:00,49.1,34.9,30.01,WNW,283,0.0,0.0,58,0.00,,,0.00,0,Wunderground v.1.15,2013-05-13 07:06:00,
2013-05-13 03:12:00,48.7,35.4,30.01,WNW,283,0.0,0.0,60,0.00,,,0.00,0,Wunderground v.1.15,2013-05-13 07:12:00,
2013-05-13 03:18:00,48.3,35.5,30.01,WNW,283,0.0,0.0,61,0.00,,,0.00,0,Wunderground v.1.15,2013-05-13 07:18:00,
2013-05-13 03:24:00,47.8,35.4,30.01,WNW,283,0.0,0.0,62,0.00,,,0.00,0,Wunderground v.1.15,2013-05-13 07:24:00,
2013-05-13 03:30:00,47.2,35.6,30.01,WNW,283,0.0,0.0,64,0.00,,,0.00,0,Wunderground v.1.15,2013-05-13 07:30:00,
2013-05-13 03:36:00,46.7,35.6,30.01,WNW,283,0.0,0.0,65,0.00,,,0.00,0,Wunderground v.1.15,2013-05-13 07:36:00,
2013-05-13 03:42:00,46.4,35.7,30.01,WNW,283,0.0,0.0,66,0.00,,,0.00,0,Wunderground v.1.15,2013-05-13 07:42:00,
2013-05-13 03:48:00,46.0,34.9,30.01,NNW,346,1.0,5.0,65,0.00,,,0.00,0,Wunderground v.1.15,2013-05-13 07:48:00,
2013-05-13 03:54:00,45.8,35.5,30.01,NNW,346,1.0,1.0,67,0.00,,,0.00,0,Wunderground v.1.15,2013-05-13 07:54:00,
2013-05-13 04:00:00,45.5,35.9,30.02,NNW,346,0.0,0.0,69,0.00,,,0.00,0,Wunderground v.1.15,2013-05-13 08:00:00,
2013-05-13 04:06:00,45.3,36.1,30.02,NNW,346,0.0,0.0,70,0.00,,,0.00,0,Wunderground v.1.15,2013-05-13 08:06:00,
2013-05-13 04:12:00,45.0,36.2,30.02,NNW,346,0.0,0.0,71,0.00,,,0.00,0,Wunderground v.1.15,2013-05-13 08:12:00,
2013-05-13 04:18:00,44.7,35.9,30.02,NNW,346,0.0,0.0,71,0.00,,,0.00,0,Wunderground v.1.15,2013-05-13 08:18:00,
2013-05-13 04:24:00,44.4,35.9,30.02,NNW,346,0.0,0.0,72,0.00,,,0.00,0,Wunderground v.1.15,2013-05-13 08:24:00,
2013-05-13 04:30:00,44.1,35.6,30.02,NNW,346,0.0,0.0,72,0.00,,,0.00,0,Wunderground v.1.15,2013-05-13 08:30:00,
2013-05-13 04:36:00,43.7,35.6,30.03,NNW,346,0.0,0.0,73,0.00,,,0.00,0,Wunderground v.1.15,2013-05-13 08:36:00,
2013-05-13 04:42:00,43.4,36.0,30.03,NNW,346,0.0,0.0,75,0.00,,,0.00,0,Wunderground v.1.15,2013-05-13 08:42:00,
2013-05-13 04:48:00,43.0,36.0,30.03,NNW,346,0.0,0.0,76,0.00,,,0.00,0,Wunderground v.1.15,2013-05-13 08:48:00,
2013-05-13 04:54:00,42.7,36.3,30.03,NNW,346,0.0,0.0,78,0.00,,,0.00,0,Wunderground v.1.15,2013-05-13 08:54:00,
2013-05-13 05:00:00,42.5,36.8,30.03,NNW,346,0.0,0.0,80,0.00,,,0.00,0,Wunderground v.1.15,2013-05-13 09:00:00,
2013-05-13 05:06:00,42.4,37.0,30.03,NNW,346,0.0,0.0,81,0.00,,,0.00,0,Wunderground v.1.15,2013-05-13 09:06:00,
2013-05-13 05:12:00,42.3,37.2,30.04,NNW,346,0.0,0.0,82,0.00,,,0.00,0,Wunderground v.1.15,2013-05-13 09:12:00,
2013-05-13 05:18:00,42.1,37.6,30.03,NNW,346,0.0,0.0,84,0.00,,,0.00,0,Wunderground v.1.15,2013-05-13 09:18:00,
2013-05-13 05:24:00,41.8,37.3,30.03,NNW,346,0.0,0.0,84,0.00,,,0.00,0,Wunderground v.1.15,2013-05-13 09:24:00,
2013-05-13 05:30:00,41.2,36.7,30.04,NNW,346,0.0,0.0,84,0.00,,,0.00,0,Wunderground v.1.15,2013-05-13 09:30:00,
2013-05-13 05:36:00,40.9,36.4,30.04,NNW,346,0.0,0.0,84,0.00,,,0.00,0,Wunderground v.1.15,2013-05-13 09:36:00,
2013-05-13 05:42:00,40.6,36.4,30.04,NNW,346,0.0,0.0,85,0.00,,,0.00,0,Wunderground v.1.15,2013-05-13 09:42:00,
2013-05-13 05:48:00,40.4,36.2,30.04,NNW,346,0.0,0.0,85,0.00,,,0.00,0,Wunderground v.1.15,2013-05-13 09:48:00,
2013-05-13 05:54:00,40.2,36.3,30.04,NNW,346,0.0,0.0,86,0.00,,,0.00,7,Wunderground v.1.15,2013-05-13 09:54:00,
2013-05-13 06:00:00,39.9,36.1,30.04,NNW,346,0.0,0.0,86,0.00,,,0.00,9,Wunderground v.1.15,2013-05-13 10:00:00,
2013-05-13 06:06:00,39.6,36.0,30.04,NNW,346,0.0,0.0,87,0.00,,,0.00,12,Wunderground v.1.15,2013-05-13 10:06:00,
2013-05-13 06:12:00,39.4,35.9,30.05,NNW,346,0.0,0.0,87,0.00,,,0.00,14,Wunderground v.1.15,2013-05-13 10:12:00,
2013-05-13 06:18:00,39.3,36.0,30.05,NNW,346,0.0,0.0,88,0.00,,,0.00,18,Wunderground v.1.15,2013-05-13 10:18:00,
2013-05-13 06:24:00,39.2,35.9,30.05,NNW,346,0.0,0.0,88,0.00,,,0.00,21,Wunderground v.1.15,2013-05-13 10:24:00,
2013-05-13 06:30:00,39.2,36.2,30.05,NNW,346,0.0,0.0,89,0.00,,,0.00,23,Wunderground v.1.15,2013-05-13 10:30:00,
2013-05-13 06:36:00,39.3,36.3,30.05,NNW,346,0.0,0.0,89,0.00,,,0.00,30,Wunderground v.1.15,2013-05-13 10:36:00,
2013-05-13 06:42:00,39.3,36.3,30.05,NE,49,0.0,0.0,89,0.00,,,0.00,28,Wunderground v.1.15,2013-05-13 10:42:00,
2013-05-13 06:48:00,39.4,36.7,30.05,NE,49,0.0,0.0,90,0.00,,,0.00,30,Wunderground v.1.15,2013-05-13 10:48:00,
2013-05-13 06:54:00,39.4,36.7,30.05,NE,49,0.0,0.0,90,0.00,,,0.00,32,Wunderground v.1.15,2013-05-13 10:54:00,
2013-05-13 07:00:00,39.7,37.3,30.06,NE,49,0.0,0.0,91,0.00,,,0.00,35,Wunderground v.1.15,2013-05-13 11:00:00,
2013-05-13 07:06:00,40.0,37.6,30.06,NE,49,0.0,0.0,91,0.00,,,0.00,37,Wunderground v.1.15,2013-05-13 11:06:00,
2013-05-13 07:12:00,40.3,37.9,30.06,NE,49,0.0,0.0,91,0.00,,,0.00,40,Wunderground v.1.15,2013-05-13 11:12:00,
2013-05-13 07:18:00,40.7,38.6,30.06,NE,49,0.0,0.0,92,0.00,,,0.00,44,Wunderground v.1.15,2013-05-13 11:18:00,
2013-05-13 07:24:00,41.2,39.1,30.06,NE,49,0.0,0.0,92,0.00,,,0.00,46,Wunderground v.1.15,2013-05-13 11:24:00,
2013-05-13 07:30:00,41.6,39.4,30.06,NE,49,0.0,0.0,92,0.00,,,0.00,49,Wunderground v.1.15,2013-05-13 11:30:00,
2013-05-13 07:36:00,42.0,39.8,30.06,NE,49,0.0,0.0,92,0.00,,,0.00,51,Wunderground v.1.15,2013-05-13 11:36:00,
2013-05-13 07:42:00,42.8,40.6,30.06,WNW,292,0.0,1.0,92,0.00,,,0.00,67,Wunderground v.1.15,2013-05-13 11:42:00,
2013-05-13 07:48:00,44.1,41.1,30.07,WNW,287,1.0,1.0,89,0.00,,,0.00,174,Wunderground v.1.15,2013-05-13 11:48:00,
2013-05-13 07:54:00,46.5,41.0,30.07,NW,308,1.0,2.0,81,0.00,,,0.00,341,Wunderground v.1.15,2013-05-13 11:54:00,
2013-05-13 08:00:00,48.4,39.8,30.07,West,281,2.0,4.0,72,0.00,,,0.00,364,Wunderground v.1.15,2013-05-13 12:00:00,
2013-05-13 08:06:00,49.8,39.7,30.07,NW,310,2.0,4.0,68,0.00,,,0.00,381,Wunderground v.1.15,2013-05-13 12:06:00,
2013-05-13 08:12:00,50.9,39.5,30.07,West,261,1.0,3.0,65,0.00,,,0.00,403,Wunderground v.1.15,2013-05-13 12:12:00,
2013-05-13 08:18:00,51.7,39.1,30.07,West,277,2.0,4.0,62,0.00,,,0.00,422,Wunderground v.1.15,2013-05-13 12:18:00,
2013-05-13 08:24:00,52.5,36.3,30.07,WNW,298,3.0,5.0,54,0.00,,,0.00,443,Wunderground v.1.15,2013-05-13 12:24:00,
2013-05-13 08:30:00,53.1,35.9,30.07,NW,316,4.0,4.0,52,0.00,,,0.00,461,Wunderground v.1.15,2013-05-13 12:30:00,
2013-05-13 08:36:00,53.5,36.8,30.07,WNW,302,3.0,5.0,53,0.00,,,0.00,483,Wunderground v.1.15,2013-05-13 12:36:00,
2013-05-13 08:42:00,53.8,36.1,30.08,NW,306,2.0,5.0,51,0.00,,,0.00,550,Wunderground v.1.15,2013-05-13 12:42:00,
2013-05-13 08:48:00,54.3,37.0,30.08,NNW,329,3.0,5.0,52,0.00,,,0.00,478,Wunderground v.1.15,2013-05-13 12:48:00,
2013-05-13 08:54:00,54.5,37.2,30.07,WNW,301,2.0,3.0,52,0.00,,,0.00,139,Wunderground v.1.15,2013-05-13 12:54:00,
2013-05-13 09:00:00,54.3,37.0,30.07,NW,310,2.0,2.0,52,0.00,,,0.00,621,Wunderground v.1.15,2013-05-13 13:00:00,
2013-05-13 09:06:00,54.4,37.1,30.07,NW,320,1.0,2.0,52,0.00,,,0.00,139,Wunderground v.1.15,2013-05-13 13:06:00,
2013-05-13 09:12:00,54.7,37.4,30.07,WNW,282,1.0,5.0,52,0.00,,,0.00,733,Wunderground v.1.15,2013-05-13 13:12:00,
2013-05-13 09:18:00,55.3,38.0,30.07,NW,313,1.0,5.0,52,0.00,,,0.00,763,Wunderground v.1.15,2013-05-13 13:18:00,
2013-05-13 09:24:00,55.4,36.0,30.07,West,260,2.0,2.0,48,0.00,,,0.00,128,Wunderground v.1.15,2013-05-13 13:24:00,
2013-05-13 09:30:00,55.1,35.7,30.07,SW,233,3.0,3.0,48,0.00,,,0.00,696,Wunderground v.1.15,2013-05-13 13:30:00,
2013-05-13 09:36:00,55.6,35.1,30.07,West,268,2.0,7.0,46,0.00,,,0.00,738,Wunderground v.1.15,2013-05-13 13:36:00,
2013-05-13 09:42:00,56.1,35.6,30.07,WNW,284,3.0,5.0,46,0.00,,,0.00,758,Wunderground v.1.15,2013-05-13 13:42:00,
2013-05-13 09:48:00,55.9,34.8,30.07,SSW,197,4.0,6.0,45,0.00,,,0.00,798,Wunderground v.1.15,2013-05-13 13:48:00,
2013-05-13 09:54:00,55.9,34.8,30.07,NNW,331,4.0,8.0,45,0.00,,,0.00,821,Wunderground v.1.15,2013-05-13 13:54:00,
2013-05-13 10:00:00,56.1,35.0,30.07,SSW,211,5.0,5.0,45,0.00,,,0.00,828,Wunderground v.1.15,2013-05-13 14:00:00,
2013-05-13 10:06:00,56.5,35.4,30.06,West,275,5.0,8.0,45,0.00,,,0.00,826,Wunderground v.1.15,2013-05-13 14:06:00,
2013-05-13 10:12:00,56.5,33.7,30.07,SW,216,5.0,5.0,42,0.00,,,0.00,295,Wunderground v.1.15,2013-05-13 14:12:00,
2013-05-13 10:18:00,56.6,34.9,30.07,SSW,200,5.0,5.0,44,0.00,,,0.00,798,Wunderground v.1.15,2013-05-13 14:18:00,
2013-05-13 10:24:00,56.8,33.9,30.07,South,181,5.0,5.0,42,0.00,,,0.00,830,Wunderground v.1.15,2013-05-13 14:24:00,
2013-05-13 10:30:00,56.8,33.3,30.07,SW,226,5.0,6.0,41,0.00,,,0.00,817,Wunderground v.1.15,2013-05-13 14:30:00,
2013-05-13 10:36:00,56.5,33.7,30.06,SSW,195,6.0,6.0,42,0.00,,,0.00,837,Wunderground v.1.15,2013-05-13 14:36:00,
2013-05-13 10:42:00,56.5,34.3,30.06,South,188,5.0,7.0,43,0.00,,,0.00,837,Wunderground v.1.15,2013-05-13 14:42:00,
2013-05-13 10:48:00,57.4,35.6,30.06,SSW,209,4.0,7.0,44,0.00,,,0.00,911,Wunderground v.1.15,2013-05-13 14:48:00,
2013-05-13 10:54:00,57.7,35.9,30.06,SW,219,5.0,10.0,44,0.00,,,0.00,928,Wunderground v.1.15,2013-05-13 14:54:00,
2013-05-13 11:00:00,57.9,35.5,30.06,SW,226,6.0,6.0,43,0.00,,,0.00,902,Wunderground v.1.15,2013-05-13 15:00:00,
2013-05-13 11:06:00,58.3,38.1,30.06,SSW,200,5.0,8.0,47,0.00,,,0.00,935,Wunderground v.1.15,2013-05-13 15:06:00,
2013-05-13 11:12:00,58.8,34.5,30.06,SW,220,6.0,7.0,40,0.00,,,0.00,916,Wunderground v.1.15,2013-05-13 15:12:00,
2013-05-13 11:18:00,58.7,34.4,30.07,WSW,238,6.0,7.0,40,0.00,,,0.00,877,Wunderground v.1.15,2013-05-13 15:18:00,
2013-05-13 11:24:00,58.3,34.1,30.06,SW,217,6.0,6.0,40,0.00,,,0.00,856,Wunderground v.1.15,2013-05-13 15:24:00,
2013-05-13 11:30:00,58.5,34.9,30.06,SW,230,6.0,6.0,41,0.00,,,0.00,905,Wunderground v.1.15,2013-05-13 15:30:00,
2013-05-13 11:36:00,57.9,33.1,30.07,SSW,209,7.0,10.0,39,0.00,,,0.00,916,Wunderground v.1.15,2013-05-13 15:36:00,
2013-05-13 11:42:00,57.4,30.6,30.06,WSW,249,7.0,7.0,36,0.00,,,0.00,919,Wunderground v.1.15,2013-05-13 15:42:00,
2013-05-13 11:48:00,57.4,32.6,30.06,West,275,6.0,8.0,39,0.00,,,0.00,921,Wunderground v.1.15,2013-05-13 15:48:00,
2013-05-13 11:54:00,57.9,33.1,30.06,SW,217,5.0,7.0,39,0.00,,,0.00,925,Wunderground v.1.15,2013-05-13 15:54:00,
2013-05-13 12:00:00,58.1,33.9,30.06,SW,231,5.0,11.0,40,0.00,,,0.00,928,Wunderground v.1.15,2013-05-13 16:00:00,
2013-05-13 12:06:00,58.4,35.4,30.06,WSW,238,6.0,11.0,42,0.00,,,0.00,933,Wunderground v.1.15,2013-05-13 16:06:00,
2013-05-13 12:12:00,58.7,36.2,30.06,SW,229,7.0,9.0,43,0.00,,,0.00,882,Wunderground v.1.15,2013-05-13 16:12:00,
2013-05-13 12:18:00,58.9,35.8,30.06,SW,229,6.0,9.0,42,0.00,,,0.00,977,Wunderground v.1.15,2013-05-13 16:18:00,
2013-05-13 12:24:00,58.9,35.8,30.05,SW,227,7.0,10.0,42,0.00,,,0.00,301,Wunderground v.1.15,2013-05-13 16:24:00,
2013-05-13 12:30:00,58.7,37.4,30.06,South,184,8.0,8.0,45,0.00,,,0.00,1197,Wunderground v.1.15,2013-05-13 16:30:00,
2013-05-13 12:36:00,58.6,36.2,30.06,SW,227,7.0,8.0,43,0.00,,,0.00,272,Wunderground v.1.15,2013-05-13 16:36:00,
2013-05-13 12:42:00,58.2,36.9,30.06,NW,311,5.0,9.0,45,0.00,,,0.00,1157,Wunderground v.1.15,2013-05-13 16:42:00,
2013-05-13 12:48:00,57.6,34.7,30.06,WNW,282,6.0,9.0,42,0.00,,,0.00,230,Wunderground v.1.15,2013-05-13 16:48:00,
2013-05-13 12:54:00,57.2,37.1,30.05,NW,307,5.0,7.0,47,0.00,,,0.00,976,Wunderground v.1.15,2013-05-13 16:54:00,
2013-05-13 13:00:00,57.0,34.7,30.06,West,269,6.0,9.0,43,0.00,,,0.00,172,Wunderground v.1.15,2013-05-13 17:00:00,
2013-05-13 13:06:00,56.8,35.7,30.05,WSW,238,6.0,9.0,45,0.00,,,0.00,777,Wunderground v.1.15,2013-05-13 17:06:00,
2013-05-13 13:12:00,57.3,34.4,30.05,SW,225,6.0,7.0,42,0.00,,,0.00,914,Wunderground v.1.15,2013-05-13 17:12:00,
2013-05-13 13:18:00,57.5,34.6,30.04,WSW,242,7.0,10.0,42,0.00,,,0.00,1109,Wunderground v.1.15,2013-05-13 17:18:00,
2013-05-13 13:24:00,57.7,34.7,30.05,WSW,244,7.0,16.0,42,0.00,,,0.00,995,Wunderground v.1.15,2013-05-13 17:24:00,
2013-05-13 13:30:00,57.7,35.3,30.05,WSW,237,7.0,7.0,43,0.00,,,0.00,1048,Wunderground v.1.15,2013-05-13 17:30:00,
2013-05-13 13:36:00,58.3,33.4,30.05,West,278,7.0,7.0,39,0.00,,,0.00,888,Wunderground v.1.15,2013-05-13 17:36:00,
2013-05-13 13:42:00,58.1,35.7,30.04,WSW,258,5.0,6.0,43,0.00,,,0.00,816,Wunderground v.1.15,2013-05-13 17:42:00,
2013-05-13 13:48:00,58.9,35.2,30.04,WNW,283,4.0,6.0,41,0.00,,,0.00,1063,Wunderground v.1.15,2013-05-13 17:48:00,
2013-05-13 13:54:00,58.6,34.3,30.04,WNW,286,6.0,10.0,40,0.00,,,0.00,689,Wunderground v.1.15,2013-05-13 17:54:00,
2013-05-13 14:00:00,58.3,32.1,30.04,West,275,6.0,6.0,37,0.00,,,0.00,292,Wunderground v.1.15,2013-05-13 18:00:00,
2013-05-13 14:06:00,58.7,33.8,30.04,SW,227,5.0,8.0,39,0.00,,,0.00,984,Wunderground v.1.15,2013-05-13 18:06:00,
2013-05-13 14:12:00,58.8,33.2,30.04,WNW,291,7.0,7.0,38,0.00,,,0.00,956,Wunderground v.1.15,2013-05-13 18:12:00,
2013-05-13 14:18:00,58.3,32.8,30.04,WNW,285,7.0,10.0,38,0.00,,,0.00,221,Wunderground v.1.15,2013-05-13 18:18:00,
2013-05-13 14:24:00,57.9,31.1,30.04,NW,312,5.0,8.0,36,0.00,,,0.00,167,Wunderground v.1.15,2013-05-13 18:24:00,
2013-05-13 14:30:00,57.7,32.9,30.04,WNW,285,7.0,10.0,39,0.00,,,0.00,953,Wunderground v.1.15,2013-05-13 18:30:00,
2013-05-13 14:36:00,57.9,33.7,30.03,WNW,296,7.0,10.0,40,0.00,,,0.00,877,Wunderground v.1.15,2013-05-13 18:36:00,
2013-05-13 14:42:00,58.6,34.3,30.04,WNW,286,6.0,8.0,40,0.00,,,0.00,874,Wunderground v.1.15,2013-05-13 18:42:00,
2013-05-13 14:48:00,58.4,34.2,30.03,West,278,6.0,9.0,40,0.00,,,0.00,858,Wunderground v.1.15,2013-05-13 18:48:00,
2013-05-13 14:54:00,58.0,33.2,30.03,WNW,294,7.0,10.0,39,0.00,,,0.00,260,Wunderground v.1.15,2013-05-13 18:54:00,
2013-05-13 15:00:00,57.4,33.9,30.03,West,277,6.0,8.0,41,0.00,,,0.00,1009,Wunderground v.1.15,2013-05-13 19:00:00,
2013-05-13 15:06:00,57.8,35.4,30.02,NW,309,5.0,8.0,43,0.00,,,0.00,939,Wunderground v.1.15,2013-05-13 19:06:00,
2013-05-13 15:12:00,58.0,33.8,30.02,NW,313,6.0,10.0,40,0.00,,,0.00,274,Wunderground v.1.15,2013-05-13 19:12:00,
2013-05-13 15:18:00,58.1,34.5,30.02,NW,320,6.0,10.0,41,0.00,,,0.00,819,Wunderground v.1.15,2013-05-13 19:18:00,
2013-05-13 15:24:00,58.4,33.5,30.02,WNW,282,6.0,7.0,39,0.00,,,0.00,821,Wunderground v.1.15,2013-05-13 19:24:00,
2013-05-13 15:30:00,58.2,33.3,30.02,NW,306,7.0,18.0,39,0.00,,,0.00,786,Wunderground v.1.15,2013-05-13 19:30:00,
2013-05-13 15:36:00,57.8,32.3,30.02,WNW,288,6.0,18.0,38,0.00,,,0.00,868,Wunderground v.1.15,2013-05-13 19:36:00,
2013-05-13 15:42:00,58.0,34.4,30.02,NE,44,6.0,11.0,41,0.00,,,0.00,745,Wunderground v.1.15,2013-05-13 19:42:00,
2013-05-13 15:48:00,57.5,32.7,30.02,WNW,299,8.0,12.0,39,0.00,,,0.00,188,Wunderground v.1.15,2013-05-13 19:48:00,
2013-05-13 15:54:00,56.6,34.3,30.02,WNW,282,7.0,10.0,43,0.00,,,0.00,780,Wunderground v.1.15,2013-05-13 19:54:00,
2013-05-13 16:00:00,56.9,32.8,30.02,NNW,338,7.0,7.0,40,0.00,,,0.00,204,Wunderground v.1.15,2013-05-13 20:00:00,
2013-05-13 16:06:00,56.9,34.0,30.02,East,79,6.0,7.0,42,0.00,,,0.00,754,Wunderground v.1.15,2013-05-13 20:06:00,
2013-05-13 16:12:00,57.6,32.2,30.02,NW,307,6.0,9.0,38,0.00,,,0.00,708,Wunderground v.1.15,2013-05-13 20:12:00,
2013-05-13 16:18:00,57.1,32.4,30.02,WSW,240,6.0,9.0,39,0.00,,,0.00,185,Wunderground v.1.15,2013-05-13 20:18:00,
2013-05-13 16:24:00,57.4,33.3,30.02,NW,323,6.0,8.0,40,0.00,,,0.00,642,Wunderground v.1.15,2013-05-13 20:24:00,
2013-05-13 16:30:00,57.6,32.2,30.02,NW,310,6.0,6.0,38,0.00,,,0.00,629,Wunderground v.1.15,2013-05-13 20:30:00,
2013-05-13 16:36:00,57.2,31.8,30.02,NW,307,7.0,10.0,38,0.00,,,0.00,153,Wunderground v.1.15,2013-05-13 20:36:00,
2013-05-13 16:42:00,56.6,33.2,30.02,WNW,288,7.0,7.0,41,0.00,,,0.00,647,Wunderground v.1.15,2013-05-13 20:42:00,
2013-05-13 16:48:00,56.1,31.5,30.02,NW,316,8.0,9.0,39,0.00,,,0.00,141,Wunderground v.1.15,2013-05-13 20:48:00,
2013-05-13 16:54:00,55.7,31.7,30.02,NE,51,7.0,9.0,40,0.00,,,0.00,211,Wunderground v.1.15,2013-05-13 20:54:00,
2013-05-13 17:00:00,55.9,31.3,30.02,NW,315,7.0,7.0,39,0.00,,,0.00,629,Wunderground v.1.15,2013-05-13 21:00:00,
2013-05-13 17:06:00,56.5,31.8,30.02,NW,321,7.0,9.0,39,0.00,,,0.00,142,Wunderground v.1.15,2013-05-13 21:06:00,
2013-05-13 17:12:00,55.9,31.9,30.02,WNW,290,7.0,7.0,40,0.00,,,0.00,216,Wunderground v.1.15,2013-05-13 21:12:00,
2013-05-13 17:18:00,55.8,32.4,30.02,NW,304,7.0,8.0,41,0.00,,,0.00,533,Wunderground v.1.15,2013-05-13 21:18:00,
2013-05-13 17:24:00,56.2,32.8,30.02,WNW,301,7.0,7.0,41,0.00,,,0.00,425,Wunderground v.1.15,2013-05-13 21:24:00,
2013-05-13 17:30:00,56.3,32.9,30.02,NW,314,6.0,8.0,41,0.00,,,0.00,297,Wunderground v.1.15,2013-05-13 21:30:00,
2013-05-13 17:36:00,56.0,33.2,30.02,NW,306,6.0,9.0,42,0.00,,,0.00,171,Wunderground v.1.15,2013-05-13 21:36:00,
2013-05-13 17:42:00,55.8,33.0,30.02,NW,320,6.0,8.0,42,0.00,,,0.00,125,Wunderground v.1.15,2013-05-13 21:42:00,
2013-05-13 17:48:00,55.7,31.7,30.01,NW,310,6.0,10.0,40,0.00,,,0.00,218,Wunderground v.1.15,2013-05-13 21:48:00,
2013-05-13 17:54:00,55.9,31.9,30.02,NW,323,5.0,7.0,40,0.00,,,0.00,279,Wunderground v.1.15,2013-05-13 21:54:00,
2013-05-13 18:00:00,56.0,30.7,30.02,North,5,5.0,5.0,38,0.00,,,0.00,315,Wunderground v.1.15,2013-05-13 22:00:00,
2013-05-13 18:06:00,55.8,31.2,30.02,WNW,284,5.0,5.0,39,0.00,,,0.00,223,Wunderground v.1.15,2013-05-13 22:06:00,
2013-05-13 18:12:00,55.8,31.2,30.02,NNW,329,5.0,8.0,39,0.00,,,0.00,267,Wunderground v.1.15,2013-05-13 22:12:00,
2013-05-13 18:18:00,55.6,30.4,30.02,NE,46,6.0,8.0,38,0.00,,,0.00,251,Wunderground v.1.15,2013-05-13 22:18:00,
2013-05-13 18:24:00,55.5,30.3,30.02,NW,326,6.0,6.0,38,0.00,,,0.00,234,Wunderground v.1.15,2013-05-13 22:24:00,
2013-05-13 18:30:00,55.4,30.2,30.02,WNW,297,5.0,8.0,38,0.00,,,0.00,209,Wunderground v.1.15,2013-05-13 22:30:00,
2013-05-13 18:36:00,55.3,30.1,30.02,NW,312,6.0,8.0,38,0.00,,,0.00,181,Wunderground v.1.15,2013-05-13 22:36:00,
2013-05-13 18:42:00,55.1,29.9,30.02,West,281,6.0,9.0,38,0.00,,,0.00,162,Wunderground v.1.15,2013-05-13 22:42:00,
2013-05-13 18:48:00,55.0,29.2,30.02,WNW,286,6.0,9.0,37,0.00,,,0.00,135,Wunderground v.1.15,2013-05-13 22:48:00,
2013-05-13 18:54:00,54.8,29.7,30.02,NW,313,6.0,6.0,38,0.00,,,0.00,46,Wunderground v.1.15,2013-05-13 22:54:00,
2013-05-13 19:00:00,54.6,30.7,30.02,NW,322,4.0,4.0,40,0.00,,,0.00,54,Wunderground v.1.15,2013-05-13 23:00:00,
2013-05-13 19:06:00,54.5,30.6,30.02,WNW,296,3.0,4.0,40,0.00,,,0.00,49,Wunderground v.1.15,2013-05-13 23:06:00,
2013-05-13 19:12:00,54.4,31.2,30.03,WNW,292,4.0,4.0,41,0.00,,,0.00,63,Wunderground v.1.15,2013-05-13 23:12:00,
2013-05-13 19:18:00,54.2,30.4,30.03,NNW,329,4.0,9.0,40,0.00,,,0.00,51,Wunderground v.1.15,2013-05-13 23:18:00,
2013-05-13 19:24:00,53.9,30.7,30.03,ENE,69,4.0,4.0,41,0.00,,,0.00,37,Wunderground v.1.15,2013-05-13 23:24:00,
2013-05-13 19:30:00,53.6,30.4,30.04,NW,320,4.0,4.0,41,0.00,,,0.00,25,Wunderground v.1.15,2013-05-13 23:30:00,
2013-05-13 19:36:00,53.3,30.2,30.04,NE,44,4.0,5.0,41,0.00,,,0.00,21,Wunderground v.1.15,2013-05-13 23:36:00,
2013-05-13 19:42:00,53.1,30.6,30.04,NNW,337,3.0,3.0,42,0.00,,,0.00,18,Wunderground v.1.15,2013-05-13 23:42:00,
2013-05-13 19:48:00,52.9,31.0,30.04,WNW,291,3.0,5.0,43,0.00,,,0.00,12,Wunderground v.1.15,2013-05-13 23:48:00,
2013-05-13 19:54:00,52.7,30.8,30.05,WNW,293,1.0,3.0,43,0.00,,,0.00,9,Wunderground v.1.15,2013-05-13 23:54:00,
2013-05-13 20:00:00,52.3,31.6,30.05,WNW,296,0.0,0.0,45,0.00,,,0.00,5,Wunderground v.1.15,2013-05-14 00:00:00,
2013-05-13 20:06:00,52.1,31.4,30.05,WNW,296,0.0,2.0,45,0.00,,,0.00,0,Wunderground v.1.15,2013-05-14 00:06:00,
2013-05-13 20:12:00,51.8,31.1,30.05,WNW,296,0.0,0.0,45,0.00,,,0.00,0,Wunderground v.1.15,2013-05-14 00:12:00,
2013-05-13 20:18:00,51.5,31.4,30.05,WNW,296,0.0,1.0,46,0.00,,,0.00,0,Wunderground v.1.15,2013-05-14 00:18:00,
2013-05-13 20:24:00,51.1,31.0,30.06,NW,323,1.0,1.0,46,0.00,,,0.00,0,Wunderground v.1.15,2013-05-14 00:24:00,
2013-05-13 20:30:00,50.8,30.7,30.06,NW,317,1.0,3.0,46,0.00,,,0.00,0,Wunderground v.1.15,2013-05-14 00:30:00,
2013-05-13 20:36:00,50.6,31.6,30.06,NW,320,1.0,3.0,48,0.00,,,0.00,0,Wunderground v.1.15,2013-05-14 00:36:00,
2013-05-13 20:42:00,50.4,31.9,30.07,NW,320,0.0,0.0,49,0.00,,,0.00,0,Wunderground v.1.15,2013-05-14 00:42:00,
2013-05-13 20:48:00,50.3,34.7,30.07,NW,320,0.0,0.0,55,0.00,,,0.00,0,Wunderground v.1.15,2013-05-14 00:48:00,
2013-05-13 20:54:00,50.0,34.9,30.07,NW,320,0.0,0.0,56,0.00,,,0.00,0,Wunderground v.1.15,2013-05-14 00:54:00,
2013-05-13 21:00:00,49.6,34.5,30.07,NW,320,0.0,0.0,56,0.00,,,0.00,0,Wunderground v.1.15,2013-05-14 01:00:00,
2013-05-13 21:06:00,49.3,34.7,30.08,NW,320,0.0,0.0,57,0.00,,,0.00,0,Wunderground v.1.15,2013-05-14 01:06:00,
2013-05-13 21:12:00,48.8,34.7,30.08,NW,320,0.0,0.0,58,0.00,,,0.00,0,Wunderground v.1.15,2013-05-14 01:12:00,
2013-05-13 21:18:00,48.4,34.3,30.08,NW,320,0.0,0.0,58,0.00,,,0.00,0,Wunderground v.1.15,2013-05-14 01:18:00,
2013-05-13 21:24:00,48.0,34.8,30.09,NW,320,0.0,0.0,60,0.00,,,0.00,0,Wunderground v.1.15,2013-05-14 01:24:00,
2013-05-13 21:30:00,47.6,35.2,30.09,NW,320,0.0,0.0,62,0.00,,,0.00,0,Wunderground v.1.15,2013-05-14 01:30:00,
2013-05-13 21:36:00,47.3,35.7,30.09,NW,320,0.0,0.0,64,0.00,,,0.00,0,Wunderground v.1.15,2013-05-14 01:36:00,
2013-05-13 21:42:00,46.9,35.4,30.10,NW,320,0.0,0.0,64,0.00,,,0.00,0,Wunderground v.1.15,2013-05-14 01:42:00,
2013-05-13 21:48:00,46.4,35.7,30.10,NW,320,0.0,0.0,66,0.00,,,0.00,0,Wunderground v.1.15,2013-05-14 01:48:00,
2013-05-13 21:54:00,46.0,35.7,30.10,NW,320,0.0,0.0,67,0.00,,,0.00,0,Wunderground v.1.15,2013-05-14 01:54:00,
2013-05-13 22:00:00,45.6,35.3,30.10,NW,320,0.0,0.0,67,0.00,,,0.00,0,Wunderground v.1.15,2013-05-14 02:00:00,
2013-05-13 22:06:00,45.3,35.4,30.10,NW,320,0.0,0.0,68,0.00,,,0.00,0,Wunderground v.1.15,2013-05-14 02:06:00,
2013-05-13 22:12:00,44.9,35.3,30.11,NW,320,0.0,0.0,69,0.00,,,0.00,0,Wunderground v.1.15,2013-05-14 02:12:00,
2013-05-13 22:18:00,44.5,35.3,30.11,NW,320,0.0,0.0,70,0.00,,,0.00,0,Wunderground v.1.15,2013-05-14 02:18:00,
2013-05-13 22:24:00,44.2,35.4,30.11,NW,320,0.0,0.0,71,0.00,,,0.00,0,Wunderground v.1.15,2013-05-14 02:24:00,
2013-05-13 22:30:00,43.8,35.4,30.11,NW,320,0.0,0.0,72,0.00,,,0.00,0,Wunderground v.1.15,2013-05-14 02:30:00,
2013-05-13 22:36:00,43.5,35.8,30.11,NW,320,0.0,0.0,74,0.00,,,0.00,0,Wunderground v.1.15,2013-05-14 02:36:00,
2013-05-13 22:42:00,43.2,35.5,30.11,NW,320,0.0,0.0,74,0.00,,,0.00,0,Wunderground v.1.15,2013-05-14 02:42:00,
2013-05-13 22:48:00,43.0,35.6,30.11,NW,320,0.0,0.0,75,0.00,,,0.00,0,Wunderground v.1.15,2013-05-14 02:48:00,
2013-05-13 22:54:00,42.7,36.0,30.11,NW,320,0.0,0.0,77,0.00,,,0.00,0,Wunderground v.1.15,2013-05-14 02:54:00,
2013-05-13 23:00:00,42.3,35.6,30.11,NW,320,0.0,0.0,77,0.00,,,0.00,0,Wunderground v.1.15,2013-05-14 03:00:00,
2013-05-13 23:06:00,42.1,35.4,30.11,NW,320,0.0,0.0,77,0.00,,,0.00,0,Wunderground v.1.15,2013-05-14 03:06:00,
2013-05-13 23:12:00,41.9,35.5,30.11,NW,320,0.0,0.0,78,0.00,,,0.00,0,Wunderground v.1.15,2013-05-14 03:12:00,
2013-05-13 23:18:00,41.8,35.8,30.10,NW,320,0.0,0.0,79,0.00,,,0.00,0,Wunderground v.1.15,2013-05-14 03:18:00,
2013-05-13 23:24:00,41.6,35.6,30.11,NW,320,0.0,0.0,79,0.00,,,0.00,0,Wunderground v.1.15,2013-05-14 03:24:00,
2013-05-13 23:30:00,41.4,35.7,30.11,NW,320,0.0,0.0,80,0.00,,,0.00,0,Wunderground v.1.15,2013-05-14 03:30:00,
2013-05-13 23:36:00,41.2,35.2,30.11,NW,320,0.0,0.0,79,0.00,,,0.00,0,Wunderground v.1.15,2013-05-14 03:36:00,
2013-05-13 23:42:00,41.1,35.1,30.11,NW,320,0.0,0.0,79,0.00,,,0.00,0,Wunderground v.1.15,2013-05-14 03:42:00,
2013-05-13 23:48:00,41.1,35.4,30.11,NW,320,0.0,0.0,80,0.00,,,0.00,0,Wunderground v.1.15,2013-05-14 03:48:00,
2013-05-13 23:54:00,41.1,35.7,30.11,NW,320,0.0,0.0,81,0.00,,,0.00,0,Wunderground v.1.15,2013-05-14 03:54:00,